YZ-1 R/B, 43625

Orbit data source: Space-Track

YZ-1 R/B, 43625 is space debris originally from a launch on Wed, 19 Sep 2018 UTC launched from the Xichang Space Center, China (XSC). Debris objects in space refer to the collection of defunct objects orbiting the Earth. Examples of debris include non-operational satellites, rocket bodies, and fragments generated from explosions, collisions, or faulty payload assembly.

Loading next visibility...
Identifier
43625, 2018-072D
Orbit
Active
Country
Flag of CNCN / PRC
Related business
Manufacturer
CALT
Mission
Spacecraft
Bus & Motor
YZ-1, Unknown motor
Mass
~2,075 kg wet, ~2,075 kg dry
Launch date (UTC)
2018-09-19 (7 years ago)
Launch vehicle
Unknown
Launch site
Xichang Space Center, China (XSC)
Object type
Payload
Rocket body
Debris
Shape & HBR
Double Cone, 2.0 m
Radar Cross Section
5.890 m², Large (>1 m²)

Expand to show TLE details & history
Last TLE update: 1 day ago

TLE from 1 day ago
0 YZ-1 R/B
1 43625U 18072D   25294.69820327 -.00000006  00000-0  00000-0 0  9994
2 43625  56.2150  78.8480 0105948  62.1169 298.9317  1.77481830 45959
Epoch: 2025-10-21T16:45Z
TLE epoch observation values (Epoch: 2025-10-21T16:45:24.762Z)
Latitude
-0.00004°
Longitude
157.0859°
Altitude
22,293.109 km
Speed
3.738 km/s
True Right ascension
05h 15m 17s
True Declination
0° 00' 00"
Sunlit
Object was in daylight at epoch
Visualization orbit readout
Latitude
Unknown
Longitude
Unknown
Altitude
Unknown
Speed
Unknown
Apparent Right ascension
Unknown
Apparent Declination
Unknown
Sunlit
N/A
Visualization observer readout
Local Sidereal Time
13:49:47
Azimuth
Unknown
Elevation
Unknown
Doppler factor
Unknown
Orbital elements
Apogee altitude
22,743.05 km
Perigee altitude
22,132.453 km
Semi-major axis
28,815.888 km
Eccentricity
0.01059
Inclination
56.215°
RAAN
78.848°
Arg. of periapsis
62.1169°
True anomaly
297.86236°
Mean anomaly
298.9317°
Eccentric anomaly
298.39771°
Mean motion
0.44371 °/min
Orbital period
811.35 mins
BSTAR
0
Loading maneuver chart data...
Computing Atmospheric mass density...
Loading historical data...
Loading historical data...
Loading historical data...
Loading historical data...
Loading historical data...
Loading historical data...
Loading historical data...
Other satellites on launch #72 in the year 2018 (2018-09-19 UTC)

Documentation

Showing up to 5 results
|